星链-34419 (STARLINK-34419)

导读

STARLINK-34419是美国于2025年6月17日发射的星链卫星,隶属于SpaceX打造的星链卫星互联网星座项目。该卫星承担着为全球偏远地区、海上及航空场景提供高速低延迟宽带互联网接入的任务,助力星链完成全球网络覆盖布局,推进低轨卫星通信网络的规模化建设。

基本信息
目录编号:
64412
目录名称:
STARLINK-34419
国际标识:
2025-129A
轨道中心:
EARTH
卫星名称:
星链-34419
卫星全名:
星链-34419 (STARLINK-34419)
卫星状态:
在轨 (已飞行444 天)
发射日期:
2025-06-17 UTC
国别 :
美国 (US)
星等 :
--
轨道信息
数据来源 国际轨道数据
星历时间: 2026-09-04T14:00:02+0800
13小时前
查看轨道信息
半长轴: 6881.117km
偏心率: 0.0001893
轨道倾角: 70.000°
近地点辐角 259.540°
升交点赤经 344.085°
平近点角 255.325°
近地点: 501.677km
远地点: 504.283km
周期: 94.678分钟
每日圈数: 15.209482
详细信息
固有亮度:
5
最大亮度:
2.5
卫星平台:
Starlink V1.0
覆盖范围:
全球
运营商:
太空探索技术公司
运营商所在国:
美国
制造商(研发单位):
太空探索技术公司
制造商所在国:
美国
使用方式:
暂无
卫星简介
Starlink 计划是 SpaceX 推出的全球卫星互联网项目,通过发射低轨道卫星,为全球尤其是偏远地区提供高速、低延迟的互联网服务。自 2019 年起,Starlink 已部署数千颗卫星,旨在缩小全球数字鸿沟,推动互联网普及。该项目还为军事、航空等行业提供通信支持,带来广泛经济效益。
2D轨道图
3D轨道图
轨道高度分析图
轨道倾角分析图
轨道综合分析图
查看轨道综合分析图
交会数据列表
事件ID 空间交会对象 最接近时刻(TCA) 交会距离 交会风险概率(CRP) 交会风险指数(CRI) 操作
CDM_260831-171505-399806-441221
2026-08-31T
17:15:25+0000
0.771 km
远距离
5.868368E-5 中风险 0.7
CDM_260905-150306-380206-441221
2026-09-05T
15:03:10+0000
1.094 km
极远距离
1.701302E-5 中风险 0.6
CDM_260905-155905-984406-441221
2026-09-05T
15:59:00+0000
0.937 km
远距离
1.263674E-5 中风险 0.57
CDM_260905-172805-809606-441221
2026-09-05T
17:28:37+0000
1.348 km
极远距离
8.565124E-6 低风险 0.54
CDM_260905-133405-712206-441221
2026-09-05T
13:34:04+0000
1.149 km
极远距离
6.322556E-6 低风险 0.51
CDM_260831-185005-399806-441221
2026-08-31T
18:50:49+0000
1.530 km
极远距离
5.764398E-6 低风险 0.5
CDM_260906-171706-441206-951221
2026-09-06T
17:17:16+0000
1.337 km
极远距离
4.937595E-6 低风险 0.49
CDM_260904-222406-441206-901921
2026-09-04T
22:24:55+0000
1.746 km
极远距离
4.193661E-6 低风险 0.47
CDM_260905-163206-365606-441221
2026-09-05T
16:32:49+0000
1.577 km
极远距离
4.153567E-6 低风险 0.47
CDM_260905-145806-365606-441221
2026-09-05T
14:58:37+0000
1.666 km
极远距离
3.516297E-6 低风险 0.46